Regional Weather Roundup
Issued by NWS Newport/Morehead, NC

Current Version | Previous Version | Text Only | Print | Product List | Glossary On
Versions: 1 2 3 4 5 6 7 8 9 10 11 12 13 14 15 16 17 18 19 20 21 22 23 24 25 26 27 28 29 30 31 32 33 34 35 36 37 38 39 40 41 42 43 44 45 46 47 48 49 50
000
ASUS42 KMHX 311524
RWRMHX
WEATHER ROUNDUP FOR EASTERN NORTH CAROLINA
NATIONAL WEATHER SERVICE NEWPORT/MOREHEAD CITY NC
1100 AM EDT MON AUG 31 2015

NOTE: "FAIR" INDICATES FEW OR NO CLOUDS BELOW 12,000 FEET
WITH NO SIGNIFICANT WEATHER AND/OR OBSTRUCTIONS TO VISIBILITY

NCZ015>017-031-032-045>047-102-103-311600-
NORTH COAST

CITY           SKY/WX    TMP DP  RH WIND       PRES   REMARKS
EDENTON        RAIN      73  69  90 NW5       30.17R
ELIZABETH CITY LGT RAIN  79  69  71 W6        30.15R
KITTY HAWK     CLOUDY    83  68  59 CALM      30.12F
MANTEO         CLOUDY    79  69  69 E5        30.13F

$$

NCZ045>047-081-094-103-104-311600-
CENTRAL COAST

CITY           SKY/WX    TMP DP  RH WIND       PRES   REMARKS
FRISCO         CLOUDY    80  72  76 E5        30.13S
SWANQUARTER    NOT AVBL

$$

NCZ095-097-098-100-101-311600-
SOUTHERN COAST

CITY           SKY/WX    TMP DP  RH WIND       PRES   REMARKS
BEAUFORT       CLOUDY    79  73  82 E6        30.11S
CEDAR ISLAND   NOT AVBL
JACKSONVILLE   HVY RAIN  76  74  93 CALM      30.11R VSB 3/4
PINEY ISLAND   CLOUDY   N/A N/A N/A SE7       30.11S
WILMINGTON     CLOUDY    77  74  90 NW7       30.11R


$$

NCZ011>013-027>030-043-044-078>080-089-090>093-098-311600-
COASTAL PLAIN

CITY           SKY/WX    TMP DP  RH WIND       PRES   REMARKS
AHOSKIE        HVY RAIN  69  67  95 N5        30.16S VSB 3/4
CLINTON        CLOUDY    77  74  91 CALM      30.13R
ELIZABETHTOWN  LGT RAIN  74  74  98 CALM      30.12R
GOLDSBORO      CLOUDY    72  70  94 NE6       30.13R FOG
GREENVILLE     LGT RAIN  70  70 100 N5        30.15S
HAVELOCK       LGT RAIN  78  74  87 SE3       30.12R
KENANSVILLE    LGT RAIN  73  72  97 CALM      30.14R
KINSTON        HVY RAIN  72  70  94 NW8       30.14R
NEW BERN       RAIN      78  73  84 E3        30.13R
RICHLANDS      CLOUDY    73  70  88 W5        30.13R
ROCKY MOUNT    LGT RAIN  70  69  97 NE6       30.15R FOG
WASHINGTON     CLOUDY    71  69  94 NE9       30.14S
WHITEVILLE     HVY RAIN  75  71  89 CALM      30.11R

$$

AMZ130-135-150-152-154-156-158-170-250-252-270-ANZ085-086-088-633-658-670-311600-
MARINE OBSERVATIONS

STATION/POSITION TIME  TEMP    WIND        PRES    WAVE   SWELL
                       AIR SEA DIR/SP/G            HT/PER HT/PER
                 (UTC) (F)     (DEG/KT/KT) (MB)    (FT/S) (FT/S)
CHESAPEAKE LIGHT 1500   78     240/ 10/ 11 1021.1
64 E VA BEACH    1450   78 78  220/  4/  6 1019.9    3/10   3/10
DUCK             NOT AVBL
2 E DUCK         NOT AVBL
OREGON INLET     NOT AVBL
13E OREGON INLT  NOT AVBL
HATTERAS CG      NOT AVBL
DIAMOND BUOY     1450   82 84  130/  6/  8 1020.2    3/ 9   3/ 9
CAPE LOOKOUT     1500   79     100/ 13/ 14 1019.1
BEAUFORT LAB     NOT AVBL
30 SE NEW RVR IN NOT AVBL
30 SE NEW RVR IN NOT AVBL
27 SE WRIGHTSVLE NOT AVBL
5 SE WRIGHTSVLE  NOT AVBL
225 S CAPE HAT   1450   83 84  150/ 14/ 16 1020.1    3/ 8   2/ 8
41 SE CHARLESTON 1450   78 84  190/ 16/ 19 1017.3    6/10   3/10

$$



USA.gov is the U.S. government's official web portal to all federal, state and local government web resources and services.